TimeMDT,TemperatureF,Dew PointF,Humidity,Sea Level PressureIn,VisibilityMPH,Wind Direction,Wind SpeedMPH,Gust SpeedMPH,PrecipitationIn,Events,Conditions,WindDirDegrees,DateUTC
12:53 AM,48.0,34.0,58,29.82,10.0,Calm,Calm,-,N/A,,Overcast,0,2013-10-09 06:53:00
1:53 AM,46.0,36.0,68,29.84,10.0,ESE,3.5,-,N/A,,Overcast,110,2013-10-09 07:53:00
2:53 AM,45.0,36.0,71,29.82,10.0,ESE,6.9,-,0.00,,Overcast,120,2013-10-09 08:53:00
3:53 AM,45.0,36.0,71,29.83,10.0,North,3.5,-,0.00,,Overcast,350,2013-10-09 09:53:00
4:53 AM,44.1,36.0,73,29.85,10.0,Calm,Calm,-,N/A,,Overcast,0,2013-10-09 10:53:00
5:53 AM,43.0,37.0,80,29.88,10.0,West,5.8,-,N/A,,Overcast,280,2013-10-09 11:53:00
6:53 AM,43.0,37.0,80,29.90,10.0,WNW,4.6,-,N/A,,Mostly Cloudy,300,2013-10-09 12:53:00
7:53 AM,43.0,36.0,76,29.92,10.0,Calm,Calm,-,N/A,,Overcast,0,2013-10-09 13:53:00
8:53 AM,43.0,36.0,76,29.95,10.0,WNW,5.8,-,N/A,,Overcast,290,2013-10-09 14:53:00
9:53 AM,45.0,34.0,65,29.97,10.0,Variable,5.8,-,N/A,,Overcast,0,2013-10-09 15:53:00
10:53 AM,46.0,34.0,63,29.98,10.0,Calm,Calm,-,N/A,,Overcast,0,2013-10-09 16:53:00
11:53 AM,46.9,34.0,61,29.97,10.0,Calm,Calm,-,N/A,,Mostly Cloudy,0,2013-10-09 17:53:00
12:53 PM,46.0,36.0,68,29.96,8.0,Calm,Calm,-,0.00,Rain,Light Rain,0,2013-10-09 18:53:00
1:53 PM,46.9,37.9,71,29.95,9.0,SSE,4.6,-,0.00,Rain,Light Rain,150,2013-10-09 19:53:00
2:53 PM,48.0,36.0,63,29.93,10.0,South,3.5,-,0.00,,Overcast,170,2013-10-09 20:53:00
3:53 PM,48.0,36.0,63,29.92,10.0,Calm,Calm,-,N/A,,Overcast,0,2013-10-09 21:53:00
4:53 PM,48.0,36.0,63,29.91,10.0,Calm,Calm,-,N/A,,Overcast,0,2013-10-09 22:53:00
5:53 PM,48.9,36.0,61,29.91,10.0,Calm,Calm,-,N/A,,Overcast,0,2013-10-09 23:53:00
6:53 PM,46.9,37.0,68,29.92,10.0,NW,4.6,-,N/A,,Overcast,310,2013-10-10 00:53:00
8:53 PM,46.0,37.0,71,29.91,10.0,WNW,4.6,-,N/A,,Overcast,300,2013-10-10 02:53:00
9:09 PM,46.4,37.4,71,29.96,10.0,NW,3.5,-,N/A,,Overcast,320,2013-10-10 03:09:00
9:53 PM,46.0,37.9,73,29.91,10.0,NW,4.6,-,N/A,,Overcast,320,2013-10-10 03:53:00
10:10 PM,44.6,37.4,76,29.96,10.0,NNW,4.6,-,N/A,,Overcast,330,2013-10-10 04:10:00
10:43 PM,46.4,37.4,71,29.96,10.0,West,4.6,-,N/A,,Overcast,280,2013-10-10 04:43:00
10:53 PM,45.0,37.9,76,29.91,10.0,WNW,4.6,-,N/A,,Overcast,290,2013-10-10 04:53:00
11:53 PM,45.0,37.9,76,29.88,10.0,WNW,4.6,-,N/A,,Overcast,300,2013-10-10 05:53:00